Regional Weather Roundup
Issued by NWS

Home | Current Version | Previous Version | Text Only | Print | Product List | Glossary Off
Versions: 1 2 3 4 5 6 7 8 9 10 11 12 13 14 15 16 17 18 19 20 21 22 23 24 25 26 27 28 29 30 31 32 33 34 35 36 37 38 39 40 41 42 43 44 45 46 47 48 49 50

000
ASUS45 KPSR 250000
RWRAZ

PRELIMINARY ARIZONA REGIONAL HOURLY WEATHER ROUNDUP
NATIONAL WEATHER SERVICE PHOENIX AZ
500 PM MST THU APR 24 2014

NOTE: FAIR INDICATES FEW OR NO CLOUDS BELOW 12,000 FEET WITH NO
SIGNIFICANT WEATHER AND/OR OBSTRUCTIONS TO VISIBILITY.

AZZ001>003-036-250100-
NORTHWEST ARIZONA

CITY           SKY/WX    TMP DP  RH WIND       PRES   REMARKS
KINGMAN        SUNNY     77   0   5 SW18      29.92F
6HR MIN TEMP:  72; 6HR MAX TEMP:  79;

$$

AZZ004>008-015-016-018-250100-
NORTH CENTRAL ARIZONA

CITY           SKY/WX    TMP DP  RH WIND       PRES   REMARKS
GRAND CANYON   SUNNY     68   5   8 SW9       30.03F
6HR MIN TEMP:  59; 6HR MAX TEMP:  69;

WILLIAMS       SUNNY     66   5   9 S14G20    30.12S
PRESCOTT       SUNNY     71  10   9 SW13      30.00F
6HR MIN TEMP:  69; 6HR MAX TEMP:  75;

FLAGSTAFF      SUNNY     63   7  11 SW15G25   30.08S
6HR MIN TEMP:  58; 6HR MAX TEMP:  66;

PAYSON         SUNNY     72  10   9 S9G20     30.04F
PAGE           SUNNY     74  12   9 NE9       29.92F
6HR MIN TEMP:  62; 6HR MAX TEMP:  75;

$$

AZZ009>014-017-250100-
NORTHEAST ARIZONA

CITY           SKY/WX    TMP DP  RH WIND       PRES   REMARKS
WINSLOW        NOT AVBL
SAINT JOHNS    SUNNY     73  -1   5 NW9       29.99F
6HR MIN TEMP:  63; 6HR MAX TEMP:  73;

WINDOW ROCK    SUNNY     67  -4   6 W12G21    30.07S
6HR MIN TEMP:  58; 6HR MAX TEMP:  70;

SHOW LOW       SUNNY     66   7   9 SW15      30.08S
$$

AZZ023-250100-
GREATER PHOENIX AREA

CITY           SKY/WX    TMP DP  RH WIND       PRES   REMARKS
PHOENIX        MOSUNNY   89  12   5 W10       29.82F
6HR MIN TEMP:  81; 6HR MAX TEMP:  91;

BUCKEYE          N/A     86  10   6 SW7       29.84S
GLENDALE       MOSUNNY   90   9   5 SW12      29.84F
DEER VALLEY    SUNNY     85  10   6 SW9       29.84F
6HR MIN TEMP:  78; 6HR MAX TEMP:  86;

SCOTTSDALE     SUNNY     86  14   7 SW10      29.86F
6HR MIN TEMP:  78; 6HR MAX TEMP:  87;

MESA-FALCON    MOSUNNY   86   7   5 S6        29.85F
CHANDLER         N/A     88  14   6 SW8       29.84F
$$

AZZ027-028-250100-
SOUTHWEST MARICOPA COUNTY AND PINAL COUNTY

CITY           SKY/WX    TMP DP  RH WIND       PRES   REMARKS
CASA GRANDE    SUNNY     88  25  10 W9        29.85F
6HR MIN TEMP:  81; 6HR MAX TEMP:  90;

GILA BEND      PTCLDY    88  19   8 NW7       29.83F
$$

AZZ503-504-507>509-250100-
SOUTHEAST ARIZONA

CITY           SKY/WX    TMP DP  RH WIND       PRES   REMARKS
TUCSON         SUNNY     87   8   5 NW8       29.90F
6HR MIN TEMP:  80; 6HR MAX TEMP:  89;

RYAN FIELD       N/A     88  18   7 NW13      29.89F
NOGALES        SUNNY     82  14   8 S10       29.97F
6HR MIN TEMP:  76; 6HR MAX TEMP:  85;

SIERRA VISTA   PTSUNNY   81  12   7 SW15      30.01R
SAFFORD        SUNNY     86   6   5 NW6       29.87F
6HR MIN TEMP:  76; 6HR MAX TEMP:  87;

$$

AZZ020-021-025-026-031-250100-
SOUTHWEST ARIZONA

CITY           SKY/WX    TMP DP  RH WIND       PRES   REMARKS
YUMA           MOSUNNY   91  21   8 VRB6      29.79F
6HR MIN TEMP:  84; 6HR MAX TEMP:  92;

$$

CAZ031-033-041-043-047-048-061-250100-
SOUTHERN CALIFORNIA

CITY           SKY/WX    TMP DP  RH WIND       PRES   REMARKS
DOWNTOWN L.A.  SUNNY     72  42  34 VRB5      29.90S
6HR MIN TEMP:  71; 6HR MAX TEMP:  79;

L.A. AIRPORT   MOSUNNY   68  50  52 W17       29.92S
6HR MIN TEMP:  68; 6HR MAX TEMP:  73;

SAN DIEGO      MOSUNNY   67  53  61 S9        29.95F
6HR MIN TEMP:  66; 6HR MAX TEMP:  69;

BURBANK        SUNNY     77  38  24 SE13      29.88F
6HR MIN TEMP:  71; 6HR MAX TEMP:  80;

ONTARIO        SUNNY     80  44  27 SW13      29.88F
6HR MIN TEMP:  71; 6HR MAX TEMP:  83;

RIVERSIDE      SUNNY     79  42  26 W15       29.88S
6HR MIN TEMP:  71; 6HR MAX TEMP:  83;

PALM SPRINGS   SUNNY     90  22   8 SE10      29.80F
6HR MIN TEMP:  83; 6HR MAX TEMP:  91;

EL CENTRO NAS  MOSUNNY   90  30  11 E6        29.77F
6HR MIN TEMP:  83; 6HR MAX TEMP:  91;

IMPERIAL       SUNNY     89  30  12 SE7       29.77F
6HR MIN TEMP:  82; 6HR MAX TEMP:  91;

BLYTHE         SUNNY     91  16   6 VRB3      29.79F
6HR MIN TEMP:  82; 6HR MAX TEMP:  91;

$$

NVZ020-UTZ003-250100-
SOUTHERN NEVADA-UTAH

CITY           SKY/WX    TMP DP  RH WIND       PRES   REMARKS
LAS VEGAS      NOT AVBL
SALT LAKE CITY PTSUNNY   67  24  19 N10       29.91F
6HR MIN TEMP:  60; 6HR MAX TEMP:  67;

$$

NMZ009-TXZ055-250100-
NEW MEXICO-WEST TEXAS

CITY           SKY/WX    TMP DP  RH WIND       PRES   REMARKS
ALBUQUERQUE    MOSUNNY   70   7   8 SE5       30.00F
6HR MIN TEMP:  61; 6HR MAX TEMP:  70;

EL PASO        MOSUNNY   80  11   7 W9        29.96S
6HR MIN TEMP:  73; 6HR MAX TEMP:  82;

$$


........................KEY........................
SKY/WX - SKY CONDITION/WEATHER
TMP    - TEMPERATURE IN FAHRENHEIT
DP     - DEW POINT IN FAHRENHEIT
RH     - RELATIVE HUMIDITY IN PERCENT
WIND   - DIRECTION AND SPEED IN MILES PER HOUR (MPH)
VRB    - VARIABLE WIND DIRECTION
PRES   - MEAN SEA LEVEL PRESSURE IN INCHES OF MERCURY
         F - FALLING PRESSURE   R - RISING PRESSURE
         S - STEADY PRESSURE
VSB    - VISIBILITY IN MILES
HX     - HEAT INDEX IN FAHRENHEIT
WCI    - WIND CHILL INDEX IN FAHRENHEIT
TC     - TEMPERATURE IN CELSIUS WHICH IS ALSO KNOWN AS
         TEMPERATURE IN CENTIGRADE
AFB    - AIR FORCE BASE
         LUKE AFB IS LUKE AIR FORCE BASE
         DAVIS-MONTHAN IS DAVIS-MONTHAN AIR FORCE BASE
NAS    - NAVAL AIR STATION
         EL CENTRO NAS IS EL CENTRO NAVAL AIR STATION
N/A    - NOT AVAILABLE



USA.gov is the U.S. government's official web portal to all federal, state and local government web resources and services.